Погода в Орьенге

Швеция     59°23′22″N   12°08′15″E
В апреле 2022 года жителям России запретили посещать сайт meteo.paraplan.net по решению Генеральной прокуратуры. Аудитория сайта уменьшилась в 10 раз. Владельцы сайта не видят смысла в поддержке погодного сервера в таких условиях. Сайт будет закрыт в октябре.
темп.,
°C
ветер,
м/с
пор.,
м/с
влажн.,
%
обл.,
%
осадки,
мм/ч
давл.,
гПа
погр.,
м
3 октября, пн
пн323:00+6зсз119543 0.0 101110
02:00+8зюз118974 0.0 101212
05:00+5зюз11955 0.0 101310
08:00+5з11965 0.0 101510
11:00+11с24734 0.0 1016438
14:00+14с24584 0.0 1016967
17:00+13ссв24570 0.0 1017364
20:00+7ссз11805 0.0 101810
4 октября, вт
вт423:00+6зюз01865 0.0 101810
02:00+6ююз1188100 0.0 101710
05:00+5ююз119491 0.0 101615
08:00+5ю2395100 0.0 101560
11:00+11ююз3773100 0.0 1012440
14:00+12юз41082100 0.0 1011969
17:00+12юз51284100 0.0 1009953
20:00+12ююз51288100 0.1 10071011
5 октября, ср
ср523:00+12ююз61495100 0.1 10051112
02:00+13юз71496100 0.1 1004969
05:00+12юз61397100 0.0 1003757
08:00+12юз51196100 0.1 1003655
11:00+14юз4987100 0.1 1003630
14:00+13ю41198100 1.7 1002834
17:00+13ю61597100 1.3 9981230
20:00+13ю81986100 2.0 9951520
6 октября, чт
чт623:00+10юз9208273 1.8 9961466
02:00+10юз817807 1.9 9981473
05:00+8юз8188062 0.1 9991514
08:00+10зюз9197499 0.1 10001677
11:00+11зюз916631 0.0 10041344
14:00+12юз82065100 0.0 10061754
17:00+12зюз819602 0.0 10071863
20:00+9зюз816683 0.0 10091322
7 октября, пт
пт723:00+9зюз7156813 0.0 10111068
02:00+9юз7158012 0.0 10121029
05:00+9юз7158655 0.0 10101137
08:00+11юз71782100 0.1 10081518
11:00+12юз81885100 0.4 10061705
14:00+12юз81887100 1.6 10041605
17:00+11юз81787100 0.6 10021516
20:00+11юз7138892 1.2 1001973